Regional Weather Roundup
Issued by NWS

Home | Current Version | Previous Version | Graphics & Text | Print | Product List | Glossary On
Versions: 1 2 3 4 5 6 7 8 9 10 11 12 13 14 15 16 17 18 19 20 21 22 23 24 25 26 27 28 29 30 31 32 33 34 35 36 37 38 39 40 41 42 43 44 45 46 47 48 49 50
000
ASUS45 KABQ 191210
RWRNM
WEATHER ROUNDUP FOR NEW MEXICO
NATIONAL WEATHER SERVICE ALBUQUERQUE NM
600 AM MDT SAT APR 19 2014

NOTE: "FAIR" MEANS FEW OR NO CLOUDS BELOW 12,000 FEET AGL WITH NO
       SIGNIFICANT WEATHER OR OBSTRUCTIONS TO VISION.

      THIS PRODUCT IS RELEASED AS TWO VERSIONS.  ONE VERSION NEAR
      THE TOP OF THE HOUR CONTAINING PRELIMINARY DATA FROM ALBUQUERQUE
      AND OTHER STATIONS.  A FINAL VERSION WITH ADDITIONAL DATA IS
      ISSUED ABOUT 10 MINUTES AFTER THE HOUR.

NMZ501-503-504-510>518-191300-
NORTHWEST PLATEAU/NORTHCENTRAL MOUNTAINS

CITY           SKY/WX    TMP DP  RH WIND       PRES   REMARKS
FARMINGTON     CLEAR     44  41  89 NE5       30.10R
6HR MIN TEMP:  44; 6HR MAX TEMP:  58; 6HR PCP: TRACE;

LOS ALAMOS     PTCLDY    46  36  67 W3        30.17S
SANTA FE       PTCLDY    40  38  93 N5        30.13S
6HR MIN TEMP:  40; 6HR MAX TEMP:  57; 6HR PCP:  0.02;

TAOS           CLOUDY    39  34  81 N3        30.19R
ANGEL FIRE     FAIR      35  32  90 CALM      30.20S

$$
NMZ402-403-502-505>509-191300-
WESTCENTRAL MOUNTAINS/SOUTHWEST MOUNTAINS

CITY           SKY/WX    TMP DP  RH WIND       PRES   REMARKS
GALLUP         MOCLDY    35  31  85 CALM      30.13F
6HR MIN TEMP:  32; 6HR MAX TEMP:  47;

GRANTS         PTCLDY    32  29  88 CALM      30.16R
SILVER CITY    LGT RAIN  48  46  93 N21       30.12F

$$
NMZ407-409-411-412-191300-
SOUTHERN DESERTS

CITY           SKY/WX    TMP DP  RH WIND       PRES   REMARKS
LORDSBURG      LGT RAIN  52  50  93 NW9       30.05F
DEMING         CLOUDY    53  48  83 NW15G29   30.03F
6HR MIN TEMP:  53; 6HR MAX TEMP:  63; 6HR PCP:  0.01;

LAS CRUCES     CLOUDY    62  41  46 SW7G22    30.05R
HOLLOMAN AFB   MOCLDY    56  48  75 N6        30.02S
ALAMOGORDO     CLOUDY    57  46  67 N9        30.03S
T OR C         TSTM      55  44  66 SW13      30.11R
6HR MIN TEMP:  58; 6HR MAX TEMP:  65; 6HR PCP: TRACE;


$$
NMZ519>523-191300-
CENTRAL VALLEYS/CENTRAL HIGHLANDS

CITY           SKY/WX    TMP DP  RH WIND       PRES   REMARKS
ALBUQUERQUE    PTCLDY    54  39  57 CALM      30.10R
6HR MIN TEMP:  52; 6HR MAX TEMP:  60; 6HR PCP: TRACE;

DOUBLE EAGLE   PTCLDY    43  32  65 W7        30.12R
MORIARTY ARPT  FOG       38  37  95 CALM      30.15R VSB 1/2
6HR MIN TEMP:  38; 6HR MAX TEMP:  56; 6HR PCP:  0.01;

CLINES CORNERS PTCLDY    42  36  79 W5        30.14S
6HR MIN TEMP:  42; 6HR MAX TEMP:  54; 6HR PCP:  0.02;

BELEN          FAIR      48  36  62 NW6       30.10R
6HR MIN TEMP:  46; 6HR MAX TEMP:  61;

SOCORRO        MOCLDY    50  35  56 NW5       30.07F
6HR MIN TEMP:  48; 6HR MAX TEMP:  58;


$$
NMZ524>526-539-540-191300-
SOUTHCENTRAL MOUNTAINS

CITY           SKY/WX    TMP DP  RH WIND       PRES   REMARKS
RUIDOSO        PTCLDY    46  41  81 S5        30.18S

$$
NMZ527>531-191300-
NORTHEAST HIGHLANDS/NORTHEAST PLAINS

CITY           SKY/WX    TMP DP  RH WIND       PRES   REMARKS
LAS VEGAS      PTCLDY    40  33  76 S9        30.13S WCI  34
6HR MIN TEMP:  40; 6HR MAX TEMP:  51;

RATON          PTCLDY    42  38  85 N8        30.07S
6HR MIN TEMP:  40; 6HR MAX TEMP:  52;

CLAYTON        CLOUDY    51  41  68 SW8       30.03S
6HR MIN TEMP:  50; 6HR MAX TEMP:  56;


$$
NMZ532>537-191300-
EASTCENTRAL PLAINS

CITY           SKY/WX    TMP DP  RH WIND       PRES   REMARKS
TUCUMCARI      PTCLDY    57  43  59 S6        30.06R
6HR MIN TEMP:  57; 6HR MAX TEMP:  62;

CANNON AFB     MOCLDY    51  42  72 S3        30.10S
6HR MIN TEMP:  48; 6HR MAX TEMP:  55;

CLOVIS AIRPORT CLOUDY    48  39  71 CALM      30.12S

$$
NMZ028-029-538-191300-
SOUTHEAST PLAINS

CITY           SKY/WX    TMP DP  RH WIND       PRES   REMARKS
ROSWELL        MOCLDY    58  48  69 E3        30.03F
6HR MIN TEMP:  58; 6HR MAX TEMP:  64; 6HR PCP: TRACE;

ARTESIA        CLOUDY    55  54  94 S9        30.05R
CARLSBAD       MOCLDY    55  52  89 SW3       30.04R
6HR MIN TEMP:  55; 6HR MAX TEMP:  67; 6HR PCP:  0.05;

HOBBS          MOCLDY    55  46  71 E12       30.06


$$



USA.gov is the U.S. government's official web portal to all federal, state and local government web resources and services.